This is the latest recevied weather packets stored in our database for station/object AI5YA-13. If no packets are shown the sender has not sent any weather packets the latest 10 day(s).
| Time | Temp. | Humidity | Pressure | Rain* | Wind** | Luminosity | Snow |
|---|---|---|---|---|---|---|---|
| 1777899870 | 15.56° C | 71% | 1012.1 hPa | 0 mm | - | 60 W/m² | - |
| 1777899566 | 15.56° C | 72% | 1012 hPa | 0 mm | - | 49 W/m² | - |
| 1777899264 | 15° C | 73% | 1012.1 hPa | 0 mm | - | 37 W/m² | - |
| 1777898961 | 15° C | 73% | 1012.2 hPa | 0 mm | - | 25 W/m² | - |
| 1777898659 | 15° C | 73% | 1012 hPa | 0 mm | - | 21 W/m² | - |
| 1777898355 | 15° C | 73% | 1011.7 hPa | 0 mm | - | 19 W/m² | - |
| 1777898054 | 15° C | 73% | 1011.9 hPa | 0 mm | - | 16 W/m² | - |
| 1777897749 | 15° C | 73% | 1012 hPa | 0 mm | - | 16 W/m² | - |
| 1777897445 | 15° C | 73% | 1011.7 hPa | 0 mm | - | 11 W/m² | - |
| 1777897142 | 15° C | 73% | 1011.7 hPa | 0 mm | - | 9 W/m² | - |
| 1777896838 | 15° C | 73% | 1011.7 hPa | 0 mm | - | 6 W/m² | - |
| 1777896535 | 15° C | 73% | 1011.4 hPa | 0 mm | - | 3 W/m² | - |
| 1777896232 | 14.44° C | 74% | 1011.4 hPa | 0 mm | - | 1 W/m² | - |
| 1777895930 | 15° C | 73% | 1011.4 hPa | 0 mm | - | 0 W/m² | - |
| 1777895628 | 15° C | 73% | 1011.2 hPa | 0 mm | - | 0 W/m² | - |
| 1777895325 | 15° C | 73% | 1011.3 hPa | 0 mm | - | 0 W/m² | - |
| 1777895023 | 15° C | 73% | 1011.2 hPa | 0 mm | - | 0 W/m² | - |
| 1777894720 | 15° C | 73% | 1011.2 hPa | 0 mm | - | 0 W/m² | - |
| 1777894416 | 15° C | 73% | 1011.5 hPa | 0 mm | - | 0 W/m² | - |
| 1777894114 | 15° C | 73% | 1011.1 hPa | 0 mm | - | 0 W/m² | - |
| 1777893811 | 15° C | 72% | 1011.5 hPa | 0 mm | - | 0 W/m² | - |
| 1777893507 | 15° C | 72% | 1011.2 hPa | 0 mm | - | 0 W/m² | - |
| 1777893204 | 15° C | 72% | 1011.3 hPa | 0 mm | - | 0 W/m² | - |
| 1777892901 | 15° C | 72% | 1011.2 hPa | 0 mm | - | 0 W/m² | - |
| 1777892597 | 15° C | 72% | 1011.2 hPa | 0 mm | - | 0 W/m² | - |
* Rain latest hour (hover to see other rain measurements)
** Current wind speed in m/s (hover to see current wind gust speed)